Starlink 3808

operational
NORAD ID: 52366 Int'l Des: 2022-045 Owner: SPXS Country: US Constellation: starlink
LEOCIRCULAR

Starlink 3808について

説明を読み込み中...

リアルタイム位置

3D地球を読み込み中...

次回通過

高度履歴

Altitude vs Time

uPlot chart will show altitude changes over time

軌道要素

1 52366U 22045AM 26095.20427445 -.00000305 00000-0 -10622-5 0 9991
2 52366 53.2165 70.0907 0001314 90.3256 269.7887 15.08844594219921
Epoch: Apr 5, 2026 • Age: 7 hours

現在のステータス

高度 542.9 km
速度 7.60 km/s
衛星直下点 41.54°N, 103.66°E
打ち上げ日 Apr 29, 2022
運用期間 3.9 years
タイプ internet

技術仕様

分類 Payload
質量 297.00 kg
乾燥質量 275.00 kg
総質量 297.00 kg
長さ 0.20 m
直径 2.80 m
スパン 9.00 m
形状 Box + pan
製造者 SPXS
バスタイプ Starlink
フェーズステータス In Orbit
所有者/国 SPXS/US

大規模コンステレーション

Loading constellations...